Location: Monfort
(47.1967°N, 0.2115°W)
Time: 03:37:27
(UTC+00:00)

USA 305 - Pass Details

Date: 24 October 2020
Orbit: 568 x 577 km, 54.0° (Epoch: 30 November)

Event Time Altitude Azimuth Distance (km) Brightness Sun altitude
Rises 17:35:29 0° 286° (WNW) 2,788 7.7 -7.2°
Reaches altitude 10° 17:37:55 10° 297° (WNW) 1,888 6.5 -7.7°
Maximum altitude 17:41:49 32° 1° (N) 992 4.0 -8.3°
Enters shadow 17:45:33 11° 65° (ENE) 1,834 4.9 -8.9°
